Parsons, KS

6:18 AM CDT on May 29, 2017 (GMT -0500)
Tri-City

Weather History for KPPF - September, 2013

Change the Weather History Date:

Saturday, September 14, 2013

  Actual Average Record
Temperature  
Mean Temperature 68 °F -  
Max Temperature 82 °F 81 °F 103 °F (1956)
Min Temperature 55 °F 60 °F 45 °F (1961)
Cooling Degree Days 4    
Growing Degree Days 18 (Base 50)    
Moisture  
Dew Point 53 °F    
Average Humidity 61    
Maximum Humidity 84    
Minimum Humidity 39    
Precipitation  
Precipitation 0.00 in - - ()
Sea Level Pressure  
Sea Level Pressure 30.03 in    
Wind  
Wind Speed 2 mph (SE)    
Max Wind Speed 8 mph    
Max Gust Speed -    
Visibility 10 miles    
Events      
Averages and records for this station are not official NWS values.
T = Trace of Precipitation, MM = Missing Value Source: NWS Daily Summary

Daily Weather History Graph

Daily Weather History Graph

Search for Another Location

Airport or City:

Trip Planner

Search our weather history database for the weather conditions in past years. The results will help you decide how hot, cold, wet, or windy it might be!

Date:

Astronomy

Sep. 14, 2013 Rise Set
Actual Time 7:03 AM CDT 7:30 PM CDT
Civil Twilight 6:37 AM CDT 7:56 PM CDT
Nautical Twilight 6:06 AM CDT 8:27 PM CDT
Astronomical Twilight 5:35 AM CDT 8:59 PM CDT
Moon 4:08 PM CDT (9/14) 1:41 AM CDT (9/14)
Length of Visible Light 13h 19m
Length of Day
12h 27m
Waxing Gibbous, 72% of the Moon is Illuminated
Sep 14
Waxing Gibbous
Sep 19
Full
Sep 26
Last Quarter
Oct 4
New
Oct 11
First Quarter

Hourly Weather History & Observations

Time (CDT) Temp. Heat Index Dew Point Humidity Pressure Visibility Wind Dir Wind Speed Gust Speed Precip Events Conditions
12:52 AM 57.9 °F - 53.1 °F 84% 30.06 in 10.0 mi Calm Calm - N/A   Clear
1:52 AM 55.9 °F - 51.1 °F 84% 30.05 in 10.0 mi Calm Calm - N/A   Clear
2:52 AM 57.9 °F - 50.0 °F 75% 30.04 in 10.0 mi Calm Calm - N/A   Clear
3:52 AM 57.0 °F - 50.0 °F 77% 30.04 in 10.0 mi Calm Calm - N/A   Clear
4:52 AM 55.9 °F - 48.9 °F 77% 30.04 in 10.0 mi East 3.5 mph - N/A   Clear
5:52 AM 55.9 °F - 48.9 °F 77% 30.05 in 10.0 mi Variable 3.5 mph - N/A   Clear
6:52 AM 55.9 °F - 50.0 °F 80% 30.06 in 10.0 mi Calm Calm - N/A   Clear
7:52 AM 57.9 °F - 51.1 °F 78% 30.08 in 10.0 mi Variable 3.5 mph - N/A   Clear
8:52 AM 62.1 °F - 53.1 °F 72% 30.09 in 10.0 mi Variable 3.5 mph - N/A   Clear
9:52 AM 66.0 °F - 54.0 °F 65% 30.09 in 10.0 mi Variable 3.5 mph - N/A   Clear
10:52 AM 70.0 °F - 54.0 °F 57% 30.09 in 10.0 mi Variable 6.9 mph - N/A   Clear
11:52 AM 75.0 °F - 54.0 °F 48% 30.07 in 10.0 mi Variable 4.6 mph - N/A   Clear
12:52 PM 78.1 °F - 54.0 °F 43% 30.06 in 10.0 mi SSE 8.1 mph - N/A   Clear
1:52 PM 79.0 °F - 55.0 °F 44% 30.04 in 10.0 mi South 6.9 mph - N/A   Clear
2:52 PM 81.0 °F 80.7 °F 55.0 °F 41% 30.01 in 10.0 mi Variable 5.8 mph - N/A   Clear
3:52 PM 81.0 °F 80.7 °F 55.0 °F 41% 29.99 in 10.0 mi SSE 5.8 mph - N/A   Clear
4:52 PM 82.9 °F 82.1 °F 55.9 °F 39% 29.96 in 10.0 mi Variable 4.6 mph - N/A   Clear
6:52 PM 77.0 °F - 57.0 °F 50% 29.96 in 10.0 mi Calm Calm - N/A   Clear
7:52 PM 73.0 °F - 57.0 °F 57% 29.96 in 10.0 mi Calm Calm - N/A   Clear
8:52 PM 73.0 °F - 55.9 °F 55% 29.96 in 10.0 mi SE 3.5 mph - N/A   Clear
9:52 PM 72.0 °F - 55.0 °F 55% 29.96 in 10.0 mi SE 3.5 mph - N/A   Clear
10:52 PM 71.1 °F - 54.0 °F 55% 29.96 in 10.0 mi SE 3.5 mph - N/A   Clear
11:52 PM 71.1 °F - 52.0 °F 51% 29.96 in 10.0 mi SSE 4.6 mph - N/A   Clear